M I D A S
Marine Information and Data Acquisition System
Tripno 1283 of the Zeeleeuw from 2007-06-08 04:51:00 to 2007-06-08 10:51:00
Back to CruiseResearch ActivitiesStationsMapUnderway DataData graphs

EquipmentUnitsComment
TimeDGPSUTC
LatitudeDGPSDM.mWGS84
LongitudeDGPSDM.mWGS84
TemperatureSBE03/SBE38deg celciusITS90
ConductivitySBE21S/mITS90
SalinitySBE21 Practical Salinity Units
ChlorophylAChelsea fluorimeterg/lCalibrated in Aceton
Missing or incorrect values are displayed as -999
Sea surface data collected by the RV Zeeleeuw from 2007-06-08 04:51:00 to 2007-06-08 10:51:00
Time Latitude Longitude Temperature Conductivity Salinity ChlorophylA
2007-06-08 04:56:21 51°13.58 2°56.133 -999 -999 -999 -999
2007-06-08 04:59:31 51°13.58 2°56.135 -999 -999 -999 -999
2007-06-08 04:59:51 51°13.58 2°56.135 -999 -999 -999 -999
2007-06-08 04:59:56 51°13.58 2°56.134 -999 -999 -999 -999
2007-06-08 05:00:46 51°13.581 2°56.135 -999 -999 -999 -999
2007-06-08 05:00:51 51°13.581 2°56.135 -999 -999 -999 -999
2007-06-08 05:00:56 51°13.581 2°56.135 -999 -999 -999 -999
2007-06-08 05:01:01 51°13.581 2°56.135 -999 -999 -999 -999
2007-06-08 05:01:21 51°13.581 2°56.135 -999 -999 -999 -999
2007-06-08 05:01:51 51°13.581 2°56.135 -999 -999 -999 -999
2007-06-08 05:04:16 51°13.58 2°56.134 -999 -999 -999 -999
2007-06-08 05:14:41 51°13.581 2°56.134 -999 -999 -999 -999
2007-06-08 05:15:46 51°13.58 2°56.133 -999 -999 -999 -999
2007-06-08 05:15:51 51°13.58 2°56.133 -999 -999 -999 -999
2007-06-08 05:16:06 51°13.58 2°56.133 -999 -999 -999 -999
2007-06-08 05:18:41 51°13.581 2°56.133 -999 -999 -999 -999
2007-06-08 05:21:21 51°13.579 2°56.132 -999 -999 -999 -999
2007-06-08 05:27:36 51°13.58 2°56.133 -999 -999 -999 -999
2007-06-08 05:27:41 51°13.579 2°56.134 -999 -999 -999 -999
2007-06-08 05:27:46 51°13.579 2°56.134 -999 -999 -999 -999
2007-06-08 05:27:56 51°13.579 2°56.133 -999 -999 -999 -999
2007-06-08 05:28:01 51°13.58 2°56.132 -999 -999 -999 -999
2007-06-08 05:28:06 51°13.58 2°56.13 -999 -999 -999 -999
2007-06-08 05:28:11 51°13.581 2°56.127 -999 -999 -999 -999
2007-06-08 05:28:16 51°13.582 2°56.124 -999 -999 -999 -999
2007-06-08 05:28:21 51°13.583 2°56.12 -999 -999 -999 -999
2007-06-08 05:28:26 51°13.585 2°56.116 -999 -999 -999 -999
2007-06-08 05:28:31 51°13.586 2°56.111 -999 -999 -999 -999
2007-06-08 05:28:36 51°13.588 2°56.106 -999 -999 -999 -999
2007-06-08 05:28:41 51°13.59 2°56.099 -999 -999 -999 -999
2007-06-08 05:28:46 51°13.593 2°56.093 -999 -999 -999 -999
2007-06-08 05:28:51 51°13.595 2°56.085 -999 -999 -999 -999
2007-06-08 05:28:56 51°13.598 2°56.077 -999 -999 -999 -999
2007-06-08 05:29:01 51°13.6 2°56.068 -999 -999 -999 -999
2007-06-08 05:29:06 51°13.603 2°56.059 -999 -999 -999 -999
2007-06-08 05:29:11 51°13.606 2°56.05 -999 -999 -999 -999
2007-06-08 05:29:16 51°13.609 2°56.04 -999 -999 -999 -999
2007-06-08 05:29:21 51°13.613 2°56.03 -999 -999 -999 -999
2007-06-08 05:29:26 51°13.616 2°56.019 -999 -999 -999 -999
2007-06-08 05:29:31 51°13.62 2°56.009 -999 -999 -999 -999
2007-06-08 05:29:36 51°13.624 2°55.999 -999 -999 -999 -999
2007-06-08 05:29:41 51°13.628 2°55.988 -999 -999 -999 -999
2007-06-08 05:29:46 51°13.632 2°55.977 -999 -999 -999 -999
2007-06-08 05:29:51 51°13.636 2°55.966 -999 -999 -999 -999
2007-06-08 05:29:56 51°13.64 2°55.955 -999 -999 -999 -999
2007-06-08 05:30:01 51°13.644 2°55.944 -999 -999 -999 -999
2007-06-08 05:30:06 51°13.649 2°55.933 -999 -999 -999 -999
2007-06-08 05:30:11 51°13.653 2°55.922 -999 -999 -999 -999
2007-06-08 05:30:16 51°13.657 2°55.911 -999 -999 -999 -999
2007-06-08 05:30:21 51°13.662 2°55.9 -999 -999 -999 -999
2007-06-08 05:30:26 51°13.667 2°55.889 -999 -999 -999 -999
2007-06-08 05:30:31 51°13.671 2°55.878 -999 -999 -999 -999
2007-06-08 05:30:36 51°13.676 2°55.868 -999 -999 -999 -999
2007-06-08 05:30:41 51°13.681 2°55.857 -999 -999 -999 -999
2007-06-08 05:30:46 51°13.686 2°55.846 -999 -999 -999 -999
2007-06-08 05:30:51 51°13.691 2°55.835 -999 -999 -999 -999
2007-06-08 05:30:56 51°13.696 2°55.824 -999 -999 -999 -999
2007-06-08 05:31:01 51°13.701 2°55.814 -999 -999 -999 -999
2007-06-08 05:31:06 51°13.706 2°55.803 -999 -999 -999 -999
2007-06-08 05:31:11 51°13.711 2°55.793 -999 -999 -999 -999
2007-06-08 05:31:16 51°13.716 2°55.782 -999 -999 -999 -999
2007-06-08 05:31:21 51°13.722 2°55.773 -999 -999 -999 -999
2007-06-08 05:31:26 51°13.727 2°55.763 -999 -999 -999 -999
2007-06-08 05:31:31 51°13.732 2°55.754 -999 -999 -999 -999
2007-06-08 05:31:36 51°13.738 2°55.745 -999 -999 -999 -999
2007-06-08 05:31:41 51°13.743 2°55.736 -999 -999 -999 -999
2007-06-08 05:31:46 51°13.749 2°55.727 -999 -999 -999 -999
2007-06-08 05:31:51 51°13.756 2°55.718 -999 -999 -999 -999
2007-06-08 05:31:56 51°13.762 2°55.71 -999 -999 -999 -999
2007-06-08 05:32:01 51°13.769 2°55.701 -999 -999 -999 -999
2007-06-08 05:32:06 51°13.775 2°55.693 -999 -999 -999 -999
2007-06-08 05:32:11 51°13.782 2°55.686 -999 -999 -999 -999
2007-06-08 05:32:16 51°13.789 2°55.678 -999 -999 -999 -999
2007-06-08 05:32:21 51°13.796 2°55.672 -999 -999 -999 -999
2007-06-08 05:32:26 51°13.803 2°55.665 -999 -999 -999 -999
2007-06-08 05:32:31 51°13.81 2°55.659 -999 -999 -999 -999
2007-06-08 05:32:36 51°13.817 2°55.654 -999 -999 -999 -999
2007-06-08 05:32:41 51°13.824 2°55.649 -999 -999 -999 -999
2007-06-08 05:32:46 51°13.832 2°55.645 -999 -999 -999 -999
2007-06-08 05:32:51 51°13.839 2°55.641 -999 -999 -999 -999
2007-06-08 05:32:56 51°13.846 2°55.639 -999 -999 -999 -999
2007-06-08 05:33:01 51°13.854 2°55.636 -999 -999 -999 -999
2007-06-08 05:33:06 51°13.861 2°55.635 -999 -999 -999 -999
2007-06-08 05:33:11 51°13.868 2°55.634 -999 -999 -999 -999
2007-06-08 05:33:16 51°13.876 2°55.634 -999 -999 -999 -999
2007-06-08 05:33:21 51°13.883 2°55.634 -999 -999 -999 -999
2007-06-08 05:33:26 51°13.89 2°55.635 -999 -999 -999 -999
2007-06-08 05:33:31 51°13.897 2°55.637 -999 -999 -999 -999
2007-06-08 05:33:36 51°13.903 2°55.638 -999 -999 -999 -999
2007-06-08 05:33:41 51°13.909 2°55.64 -999 -999 -999 -999
2007-06-08 05:33:46 51°13.915 2°55.642 -999 -999 -999 -999
2007-06-08 05:33:51 51°13.921 2°55.644 -999 -999 -999 -999
2007-06-08 05:33:56 51°13.926 2°55.646 -999 -999 -999 -999
2007-06-08 05:34:01 51°13.931 2°55.648 -999 -999 -999 -999
2007-06-08 05:34:06 51°13.935 2°55.65 -999 -999 -999 -999
2007-06-08 05:34:11 51°13.938 2°55.652 -999 -999 -999 -999
2007-06-08 05:34:16 51°13.94 2°55.654 -999 -999 -999 -999
2007-06-08 05:34:21 51°13.941 2°55.655 -999 -999 -999 -999
2007-06-08 05:34:26 51°13.94 2°55.655 -999 -999 -999 -999
2007-06-08 05:34:31 51°13.939 2°55.654 -999 -999 -999 -999
2007-06-08 05:34:36 51°13.937 2°55.652 -999 -999 -999 -999
2007-06-08 05:34:41 51°13.934 2°55.648 -999 -999 -999 -999
2007-06-08 05:34:46 51°13.932 2°55.642 -999 -999 -999 -999
2007-06-08 05:34:51 51°13.93 2°55.635 -999 -999 -999 -999
2007-06-08 05:34:56 51°13.928 2°55.628 -999 -999 -999 -999
2007-06-08 05:35:01 51°13.927 2°55.62 -999 -999 -999 -999
2007-06-08 05:35:06 51°13.926 2°55.613 -999 -999 -999 -999
2007-06-08 05:35:11 51°13.926 2°55.605 -999 -999 -999 -999
2007-06-08 05:35:16 51°13.926 2°55.598 -999 -999 -999 -999
2007-06-08 05:35:21 51°13.927 2°55.592 -999 -999 -999 -999
2007-06-08 05:35:26 51°13.927 2°55.587 -999 -999 -999 -999
2007-06-08 05:35:31 51°13.928 2°55.584 -999 -999 -999 -999
2007-06-08 05:35:36 51°13.928 2°55.582 -999 -999 -999 -999
2007-06-08 05:35:41 51°13.928 2°55.581 -999 -999 -999 -999
2007-06-08 05:35:46 51°13.927 2°55.581 -999 -999 -999 -999
2007-06-08 05:35:51 51°13.927 2°55.582 -999 -999 -999 -999
2007-06-08 05:35:56 51°13.926 2°55.582 -999 -999 -999 -999
2007-06-08 05:36:06 51°13.925 2°55.581 -999 -999 -999 -999
2007-06-08 05:36:11 51°13.926 2°55.58 -999 -999 -999 -999
2007-06-08 05:36:16 51°13.927 2°55.578 -999 -999 -999 -999
2007-06-08 05:36:21 51°13.929 2°55.576 -999 -999 -999 -999
2007-06-08 05:36:26 51°13.933 2°55.573 -999 -999 -999 -999
2007-06-08 05:36:31 51°13.937 2°55.57 -999 -999 -999 -999
2007-06-08 05:36:36 51°13.941 2°55.567 -999 -999 -999 -999
2007-06-08 05:36:41 51°13.945 2°55.563 -999 -999 -999 -999
2007-06-08 05:36:46 51°13.951 2°55.56 -999 -999 -999 -999
2007-06-08 05:36:51 51°13.958 2°55.557 -999 -999 -999 -999
2007-06-08 05:36:56 51°13.964 2°55.554 -999 -999 -999 -999
2007-06-08 05:37:01 51°13.971 2°55.55 -999 -999 -999 -999
2007-06-08 05:37:06 51°13.978 2°55.545 -999 -999 -999 -999
2007-06-08 05:37:11 51°13.986 2°55.54 -999 -999 -999 -999
2007-06-08 05:37:16 51°13.994 2°55.535 -999 -999 -999 -999
2007-06-08 05:37:21 51°14.002 2°55.529 -999 -999 -999 -999
2007-06-08 05:37:26 51°14.01 2°55.524 -999 -999 -999 -999
2007-06-08 05:37:31 51°14.019 2°55.518 -999 -999 -999 -999
2007-06-08 05:37:36 51°14.028 2°55.514 -999 -999 -999 -999
2007-06-08 05:37:41 51°14.036 2°55.508 -999 -999 -999 -999
2007-06-08 05:37:46 51°14.045 2°55.502 -999 -999 -999 -999
2007-06-08 05:37:51 51°14.054 2°55.496 -999 -999 -999 -999
2007-06-08 05:37:56 51°14.063 2°55.49 -999 -999 -999 -999
2007-06-08 05:38:01 51°14.072 2°55.483 -999 -999 -999 -999
2007-06-08 05:38:06 51°14.081 2°55.477 -999 -999 -999 -999
2007-06-08 05:38:11 51°14.091 2°55.47 -999 -999 -999 -999
2007-06-08 05:38:16 51°14.1 2°55.463 -999 -999 -999 -999
2007-06-08 05:38:21 51°14.109 2°55.455 -999 -999 -999 -999
2007-06-08 05:38:26 51°14.118 2°55.448 -999 -999 -999 -999
2007-06-08 05:38:31 51°14.127 2°55.44 -999 -999 -999 -999
2007-06-08 05:38:36 51°14.136 2°55.431 -999 -999 -999 -999
2007-06-08 05:38:41 51°14.146 2°55.423 -999 -999 -999 -999
2007-06-08 05:38:46 51°14.156 2°55.414 -999 -999 -999 -999
2007-06-08 05:38:51 51°14.166 2°55.404 -999 -999 -999 -999
2007-06-08 05:38:56 51°14.176 2°55.393 -999 -999 -999 -999
2007-06-08 05:39:01 51°14.186 2°55.382 -999 -999 -999 -999
2007-06-08 05:39:06 51°14.196 2°55.369 -999 -999 -999 -999
2007-06-08 05:39:11 51°14.206 2°55.356 -999 -999 -999 -999
2007-06-08 05:39:16 51°14.216 2°55.343 -999 -999 -999 -999
2007-06-08 05:39:21 51°14.226 2°55.329 -999 -999 -999 -999
2007-06-08 05:39:26 51°14.236 2°55.314 -999 -999 -999 -999
2007-06-08 05:39:31 51°14.246 2°55.299 -999 -999 -999 -999
2007-06-08 05:39:36 51°14.256 2°55.283 -999 -999 -999 -999
2007-06-08 05:39:41 51°14.266 2°55.266 -999 -999 -999 -999
2007-06-08 05:39:46 51°14.275 2°55.249 -999 -999 -999 -999
2007-06-08 05:39:51 51°14.284 2°55.232 -999 -999 -999 -999
2007-06-08 05:39:56 51°14.294 2°55.214 -999 -999 -999 -999
2007-06-08 05:40:01 51°14.303 2°55.196 -999 -999 -999 -999
2007-06-08 05:40:06 51°14.312 2°55.177 -999 -999 -999 -999
2007-06-08 05:40:11 51°14.321 2°55.158 -999 -999 -999 -999
2007-06-08 05:40:16 51°14.33 2°55.14 -999 -999 -999 -999
2007-06-08 05:40:21 51°14.34 2°55.121 -999 -999 -999 -999
2007-06-08 05:40:26 51°14.349 2°55.103 -999 -999 -999 -999
2007-06-08 05:40:31 51°14.359 2°55.085 -999 -999 -999 -999
2007-06-08 05:40:36 51°14.368 2°55.068 -999 -999 -999 -999
2007-06-08 05:40:41 51°14.379 2°55.051 -999 -999 -999 -999
2007-06-08 05:40:46 51°14.392 2°55.037 -999 -999 -999 -999
2007-06-08 05:40:51 51°14.405 2°55.024 -999 -999 -999 -999
2007-06-08 05:40:56 51°14.419 2°55.011 -999 -999 -999 -999
2007-06-08 05:41:01 51°14.434 2°54.999 -999 -999 -999 -999
2007-06-08 05:41:06 51°14.448 2°54.987 -999 -999 -999 -999
2007-06-08 05:41:11 51°14.463 2°54.974 -999 -999 -999 -999
2007-06-08 05:41:16 51°14.478 2°54.961 -999 -999 -999 -999
2007-06-08 05:41:21 51°14.493 2°54.949 -999 -999 -999 -999
2007-06-08 05:41:26 51°14.508 2°54.936 -999 -999 -999 -999
2007-06-08 05:41:31 51°14.523 2°54.923 -999 -999 -999 -999
2007-06-08 05:41:35 51°14.536 2°54.914 -999 -999 -999 -999
2007-06-08 05:41:41 51°14.554 2°54.899 -999 -999 -999 -999
2007-06-08 05:41:46 51°14.57 2°54.887 -999 -999 -999 -999
2007-06-08 05:41:51 51°14.586 2°54.875 -999 -999 -999 -999
2007-06-08 05:41:56 51°14.601 2°54.863 -999 -999 -999 -999
2007-06-08 05:42:00 51°14.614 2°54.853 -999 -999 -999 -999
2007-06-08 05:42:06 51°14.632 2°54.838 -999 -999 -999 -999
2007-06-08 05:42:11 51°14.647 2°54.825 -999 -999 -999 -999
2007-06-08 05:42:16 51°14.662 2°54.813 -999 -999 -999 -999
2007-06-08 05:42:21 51°14.677 2°54.8 -999 -999 -999 -999
2007-06-08 05:42:26 51°14.692 2°54.787 -999 -999 -999 -999
2007-06-08 05:42:31 51°14.708 2°54.775 -999 -999 -999 -999
2007-06-08 05:42:36 51°14.723 2°54.762 -999 -999 -999 -999
2007-06-08 05:42:41 51°14.739 2°54.75 -999 -999 -999 -999
2007-06-08 05:42:46 51°14.754 2°54.737 -999 -999 -999 -999
2007-06-08 05:42:51 51°14.769 2°54.725 -999 -999 -999 -999
2007-06-08 05:42:56 51°14.784 2°54.712 -999 -999 -999 -999
2007-06-08 05:43:00 51°14.797 2°54.703 -999 -999 -999 -999
2007-06-08 05:43:06 51°14.815 2°54.688 -999 -999 -999 -999
2007-06-08 05:43:11 51°14.831 2°54.675 -999 -999 -999 -999
2007-06-08 05:43:16 51°14.846 2°54.663 -999 -999 -999 -999
2007-06-08 05:43:21 51°14.862 2°54.651 -999 -999 -999 -999
2007-06-08 05:43:26 51°14.877 2°54.64 -999 -999 -999 -999
2007-06-08 05:43:30 51°14.89 2°54.63 -999 -999 -999 -999
2007-06-08 05:43:36 51°14.909 2°54.616 -999 -999 -999 -999
2007-06-08 05:43:41 51°14.925 2°54.605 -999 -999 -999 -999
2007-06-08 05:43:46 51°14.941 2°54.593 -999 -999 -999 -999
2007-06-08 05:43:51 51°14.957 2°54.582 -999 -999 -999 -999
2007-06-08 05:43:55 51°14.97 2°54.573 -999 -999 -999 -999
2007-06-08 05:44:01 51°14.989 2°54.558 -999 -999 -999 -999
2007-06-08 05:44:06 51°15.004 2°54.546 -999 -999 -999 -999
2007-06-08 05:44:11 51°15.019 2°54.532 -999 -999 -999 -999
2007-06-08 05:44:16 51°15.034 2°54.518 -999 -999 -999 -999
2007-06-08 05:44:21 51°15.049 2°54.503 -999 -999 -999 -999
2007-06-08 05:44:26 51°15.064 2°54.489 -999 -999 -999 -999
2007-06-08 05:44:31 51°15.078 2°54.474 -999 -999 -999 -999
2007-06-08 05:44:36 51°15.093 2°54.46 -999 -999 -999 -999
2007-06-08 05:44:41 51°15.107 2°54.446 -999 -999 -999 -999
2007-06-08 05:44:46 51°15.122 2°54.431 -999 -999 -999 -999
2007-06-08 05:44:51 51°15.136 2°54.417 -999 -999 -999 -999
2007-06-08 05:44:56 51°15.151 2°54.403 -999 -999 -999 -999
2007-06-08 05:45:00 51°15.163 2°54.392 -999 -999 -999 -999
2007-06-08 05:45:06 51°15.18 2°54.375 -999 -999 -999 -999
2007-06-08 05:45:11 51°15.195 2°54.361 -999 -999 -999 -999
2007-06-08 05:45:16 51°15.21 2°54.348 -999 -999 -999 -999
2007-06-08 05:45:21 51°15.224 2°54.333 -999 -999 -999 -999
2007-06-08 05:45:26 51°15.239 2°54.32 -999 -999 -999 -999
2007-06-08 05:45:30 51°15.251 2°54.309 -999 -999 -999 -999
2007-06-08 05:45:36 51°15.269 2°54.292 -999 -999 -999 -999
2007-06-08 05:45:41 51°15.284 2°54.279 -999 -999 -999 -999
2007-06-08 05:45:46 51°15.299 2°54.266 -999 -999 -999 -999
2007-06-08 05:45:51 51°15.314 2°54.252 -999 -999 -999 -999
2007-06-08 05:45:55 51°15.326 2°54.241 -999 -999 -999 -999
2007-06-08 05:46:01 51°15.344 2°54.225 -999 -999 -999 -999
2007-06-08 05:46:06 51°15.359 2°54.212 -999 -999 -999 -999
2007-06-08 05:46:11 51°15.373 2°54.198 -999 -999 -999 -999
2007-06-08 05:46:16 51°15.388 2°54.185 -999 -999 -999 -999
2007-06-08 05:46:21 51°15.403 2°54.171 -999 -999 -999 -999
2007-06-08 05:46:26 51°15.417 2°54.158 -999 -999 -999 -999
2007-06-08 05:46:31 51°15.432 2°54.144 -999 -999 -999 -999
2007-06-08 05:46:36 51°15.445 2°54.131 -999 -999 -999 -999
2007-06-08 05:46:41 51°15.46 2°54.117 -999 -999 -999 -999
2007-06-08 05:46:46 51°15.474 2°54.105 -999 -999 -999 -999
2007-06-08 05:46:51 51°15.488 2°54.091 -999 -999 -999 -999
2007-06-08 05:46:56 51°15.503 2°54.078 -999 -999 -999 -999
2007-06-08 05:47:00 51°15.514 2°54.067 -999 -999 -999 -999
2007-06-08 05:47:06 51°15.532 2°54.052 -999 -999 -999 -999
2007-06-08 05:47:11 51°15.546 2°54.038 -999 -999 -999 -999
2007-06-08 05:47:16 51°15.561 2°54.024 -999 -999 -999 -999
2007-06-08 05:47:20 51°15.573 2°54.013 -999 -999 -999 -999
2007-06-08 05:47:26 51°15.589 2°53.997 -999 -999 -999 -999
2007-06-08 05:47:31 51°15.603 2°53.983 -999 -999 -999 -999
2007-06-08 05:47:36 51°15.617 2°53.97 -999 -999 -999 -999
2007-06-08 05:47:41 51°15.631 2°53.957 -999 -999 -999 -999
2007-06-08 05:47:46 51°15.645 2°53.944 -999 -999 -999 -999
2007-06-08 05:47:51 51°15.66 2°53.931 -999 -999 -999 -999
2007-06-08 05:47:56 51°15.674 2°53.917 -999 -999 -999 -999
2007-06-08 05:48:01 51°15.689 2°53.904 -999 -999 -999 -999
2007-06-08 05:48:06 51°15.704 2°53.891 -999 -999 -999 -999
2007-06-08 05:48:11 51°15.719 2°53.877 -999 -999 -999 -999
2007-06-08 05:48:16 51°15.735 2°53.863 -999 -999 -999 -999
2007-06-08 05:48:21 51°15.75 2°53.85 -999 -999 -999 -999
2007-06-08 05:48:26 51°15.764 2°53.836 -999 -999 -999 -999
2007-06-08 05:48:31 51°15.779 2°53.822 -999 -999 -999 -999
2007-06-08 05:48:36 51°15.794 2°53.809 -999 -999 -999 -999
2007-06-08 05:48:41 51°15.809 2°53.795 -999 -999 -999 -999
2007-06-08 05:48:46 51°15.824 2°53.782 -999 -999 -999 -999
2007-06-08 05:48:51 51°15.839 2°53.768 -999 -999 -999 -999
2007-06-08 05:48:56 51°15.854 2°53.754 -999 -999 -999 -999
2007-06-08 05:49:00 51°15.866 2°53.743 -999 -999 -999 -999
2007-06-08 05:49:06 51°15.884 2°53.727 -999 -999 -999 -999
2007-06-08 05:49:11 51°15.899 2°53.713 -999 -999 -999 -999
2007-06-08 05:49:16 51°15.915 2°53.7 -999 -999 -999 -999
2007-06-08 05:49:20 51°15.927 2°53.689 -999 -999 -999 -999
2007-06-08 05:49:26 51°15.945 2°53.672 -999 -999 -999 -999
2007-06-08 05:49:31 51°15.96 2°53.658 -999 -999 -999 -999
2007-06-08 05:49:36 51°15.975 2°53.645 -999 -999 -999 -999
2007-06-08 05:49:41 51°15.99 2°53.631 -999 -999 -999 -999
2007-06-08 05:49:46 51°16.005 2°53.617 -999 -999 -999 -999
2007-06-08 05:49:51 51°16.021 2°53.603 -999 -999 -999 -999
2007-06-08 05:49:56 51°16.036 2°53.589 -999 -999 -999 -999
2007-06-08 05:50:01 51°16.051 2°53.576 -999 -999 -999 -999
2007-06-08 05:50:06 51°16.066 2°53.562 -999 -999 -999 -999
2007-06-08 05:50:11 51°16.081 2°53.547 -999 -999 -999 -999
2007-06-08 05:50:16 51°16.096 2°53.534 -999 -999 -999 -999
2007-06-08 05:50:21 51°16.11 2°53.52 -999 -999 -999 -999
2007-06-08 05:50:26 51°16.125 2°53.506 -999 -999 -999 -999
2007-06-08 05:50:31 51°16.141 2°53.493 -999 -999 -999 -999
2007-06-08 05:50:36 51°16.156 2°53.48 -999 -999 -999 -999
2007-06-08 05:50:41 51°16.172 2°53.467 -999 -999 -999 -999
2007-06-08 05:50:46 51°16.186 2°53.454 -999 -999 -999 -999
2007-06-08 05:50:51 51°16.201 2°53.44 -999 -999 -999 -999
2007-06-08 05:50:56 51°16.215 2°53.427 -999 -999 -999 -999
2007-06-08 05:51:01 51°16.23 2°53.414 -999 -999 -999 -999
2007-06-08 05:51:06 51°16.244 2°53.401 -999 -999 -999 -999
2007-06-08 05:51:11 51°16.259 2°53.388 -999 -999 -999 -999
2007-06-08 05:51:16 51°16.274 2°53.375 -999 -999 -999 -999
2007-06-08 05:51:20 51°16.286 2°53.364 -999 -999 -999 -999
2007-06-08 05:51:26 51°16.304 2°53.349 -999 -999 -999 -999
2007-06-08 05:51:31 51°16.319 2°53.336 -999 -999 -999 -999
2007-06-08 05:51:36 51°16.333 2°53.322 -999 -999 -999 -999
2007-06-08 05:51:41 51°16.348 2°53.309 -999 -999 -999 -999
2007-06-08 05:51:46 51°16.363 2°53.295 -999 -999 -999 -999
2007-06-08 05:51:51 51°16.378 2°53.281 -999 -999 -999 -999
2007-06-08 05:51:56 51°16.393 2°53.268 -999 -999 -999 -999
2007-06-08 05:52:01 51°16.408 2°53.255 -999 -999 -999 -999
2007-06-08 05:52:06 51°16.422 2°53.241 -999 -999 -999 -999
2007-06-08 05:52:11 51°16.437 2°53.228 -999 -999 -999 -999
2007-06-08 05:52:16 51°16.452 2°53.215 -999 -999 -999 -999
2007-06-08 05:52:21 51°16.467 2°53.202 -999 -999 -999 -999
2007-06-08 05:52:26 51°16.482 2°53.189 -999 -999 -999 -999
2007-06-08 05:52:31 51°16.497 2°53.176 -999 -999 -999 -999
2007-06-08 05:52:36 51°16.512 2°53.163 -999 -999 -999 -999
2007-06-08 05:52:41 51°16.527 2°53.15 -999 -999 -999 -999
2007-06-08 05:52:46 51°16.542 2°53.136 -999 -999 -999 -999
2007-06-08 05:52:51 51°16.557 2°53.123 -999 -999 -999 -999
2007-06-08 05:52:55 51°16.569 2°53.112 -999 -999 -999 -999
2007-06-08 05:53:01 51°16.587 2°53.095 -999 -999 -999 -999
2007-06-08 05:53:06 51°16.602 2°53.082 -999 -999 -999 -999
2007-06-08 05:53:11 51°16.617 2°53.069 -999 -999 -999 -999
2007-06-08 05:53:16 51°16.631 2°53.056 -999 -999 -999 -999
2007-06-08 05:53:21 51°16.646 2°53.042 -999 -999 -999 -999
2007-06-08 05:53:26 51°16.66 2°53.029 -999 -999 -999 -999
2007-06-08 05:53:31 51°16.674 2°53.018 -999 -999 -999 -999
2007-06-08 05:53:36 51°16.686 2°53.007 -999 -999 -999 -999
2007-06-08 05:53:40 51°16.696 2°52.999 -999 -999 -999 -999
2007-06-08 05:53:46 51°16.71 2°52.988 -999 -999 -999 -999
2007-06-08 05:53:51 51°16.721 2°52.98 -999 -999 -999 -999
2007-06-08 05:53:56 51°16.732 2°52.972 -999 -999 -999 -999
2007-06-08 05:54:01 51°16.742 2°52.965 -999 -999 -999 -999
2007-06-08 05:54:06 51°16.752 2°52.962 -999 -999 -999 -999
2007-06-08 05:54:11 51°16.762 2°52.961 -999 -999 -999 -999
2007-06-08 05:54:16 51°16.772 2°52.962 -999 -999 -999 -999
2007-06-08 05:54:21 51°16.782 2°52.965 -999 -999 -999 -999
2007-06-08 05:54:26 51°16.791 2°52.97 -999 -999 -999 -999
2007-06-08 05:54:31 51°16.799 2°52.976 -999 -999 -999 -999
2007-06-08 05:54:36 51°16.807 2°52.985 -999 -999 -999 -999
2007-06-08 05:54:41 51°16.814 2°52.994 -999 -999 -999 -999
2007-06-08 05:54:46 51°16.819 2°53.006 -999 -999 -999 -999
2007-06-08 05:54:51 51°16.825 2°53.017 -999 -999 -999 -999
2007-06-08 05:54:56 51°16.829 2°53.03 -999 -999 -999 -999
2007-06-08 05:55:01 51°16.833 2°53.043 -999 -999 -999 -999
2007-06-08 05:55:06 51°16.836 2°53.058 -999 -999 -999 -999
2007-06-08 05:55:11 51°16.837 2°53.072 -999 -999 -999 -999
2007-06-08 05:55:16 51°16.837 2°53.086 -999 -999 -999 -999
2007-06-08 05:55:21 51°16.837 2°53.101 -999 -999 -999 -999
2007-06-08 05:55:26 51°16.835 2°53.115 -999 -999 -999 -999
2007-06-08 05:55:31 51°16.833 2°53.13 -999 -999 -999 -999
2007-06-08 05:55:36 51°16.832 2°53.145 -999 -999 -999 -999
2007-06-08 05:55:41 51°16.829 2°53.159 -999 -999 -999 -999
2007-06-08 05:55:46 51°16.826 2°53.174 -999 -999 -999 -999
2007-06-08 05:55:51 51°16.825 2°53.19 -999 -999 -999 -999
2007-06-08 05:55:56 51°16.823 2°53.206 -999 -999 -999 -999
2007-06-08 05:56:00 51°16.821 2°53.219 -999 -999 -999 -999
2007-06-08 05:56:06 51°16.818 2°53.239 -999 -999 -999 -999
2007-06-08 05:56:11 51°16.817 2°53.256 -999 -999 -999 -999
2007-06-08 05:56:16 51°16.815 2°53.273 -999 -999 -999 -999
2007-06-08 05:56:21 51°16.813 2°53.289 -999 -999 -999 -999
2007-06-08 05:56:26 51°16.813 2°53.307 -999 -999 -999 -999
2007-06-08 05:56:31 51°16.812 2°53.325 -999 -999 -999 -999
2007-06-08 05:56:36 51°16.812 2°53.342 -999 -999 -999 -999
2007-06-08 05:56:41 51°16.811 2°53.36 -999 -999 -999 -999
2007-06-08 05:56:46 51°16.812 2°53.378 -999 -999 -999 -999
2007-06-08 05:56:51 51°16.811 2°53.396 -999 -999 -999 -999
2007-06-08 05:56:56 51°16.812 2°53.414 -999 -999 -999 -999
2007-06-08 05:57:01 51°16.813 2°53.431 -999 -999 -999 -999
2007-06-08 05:57:06 51°16.813 2°53.449 -999 -999 -999 -999
2007-06-08 05:57:11 51°16.814 2°53.468 -999 -999 -999 -999
2007-06-08 05:57:16 51°16.815 2°53.486 -999 -999 -999 -999
2007-06-08 05:57:21 51°16.816 2°53.504 -999 -999 -999 -999
2007-06-08 05:57:26 51°16.817 2°53.522 -999 -999 -999 -999
2007-06-08 05:57:31 51°16.817 2°53.541 -999 -999 -999 -999
2007-06-08 05:57:35 51°16.818 2°53.556 -999 -999 -999 -999
2007-06-08 05:57:41 51°16.82 2°53.577 -999 -999 -999 -999
2007-06-08 05:57:46 51°16.821 2°53.596 -999 -999 -999 -999
2007-06-08 05:57:51 51°16.822 2°53.615 -999 -999 -999 -999
2007-06-08 05:57:56 51°16.823 2°53.633 -999 -999 -999 -999
2007-06-08 05:58:00 51°16.823 2°53.647 -999 -999 -999 -999
2007-06-08 05:58:06 51°16.821 2°53.667 -999 -999 -999 -999
2007-06-08 05:58:11 51°16.819 2°53.682 -999 -999 -999 -999
2007-06-08 05:58:16 51°16.815 2°53.697 -999 -999 -999 -999
2007-06-08 05:58:21 51°16.811 2°53.71 -999 -999 -999 -999
2007-06-08 05:58:26 51°16.805 2°53.721 -999 -999 -999 -999
2007-06-08 05:58:31 51°16.8 2°53.731 -999 -999 -999 -999
2007-06-08 05:58:36 51°16.794 2°53.739 -999 -999 -999 -999
2007-06-08 05:58:41 51°16.787 2°53.747 -999 -999 -999 -999
2007-06-08 05:58:46 51°16.78 2°53.752 -999 -999 -999 -999
2007-06-08 05:58:51 51°16.773 2°53.757 -999 -999 -999 -999
2007-06-08 05:58:56 51°16.766 2°53.76 -999 -999 -999 -999
2007-06-08 05:59:01 51°16.759 2°53.763 -999 -999 -999 -999
2007-06-08 05:59:06 51°16.751 2°53.766 -999 -999 -999 -999
2007-06-08 05:59:11 51°16.743 2°53.768 -999 -999 -999 -999
2007-06-08 05:59:16 51°16.735 2°53.77 -999 -999 -999 -999
2007-06-08 05:59:21 51°16.727 2°53.772 -999 -999 -999 -999
2007-06-08 05:59:26 51°16.719 2°53.774 -999 -999 -999 -999
2007-06-08 05:59:31 51°16.711 2°53.775 -999 -999 -999 -999
2007-06-08 05:59:36 51°16.702 2°53.777 -999 -999 -999 -999
2007-06-08 05:59:41 51°16.694 2°53.78 -999 -999 -999 -999
2007-06-08 05:59:46 51°16.685 2°53.783 -999 -999 -999 -999
2007-06-08 05:59:51 51°16.676 2°53.785 -999 -999 -999 -999
2007-06-08 05:59:56 51°16.667 2°53.788 -999 -999 -999 -999
2007-06-08 06:00:01 51°16.658 2°53.79 -999 -999 -999 -999
2007-06-08 06:00:06 51°16.649 2°53.793 -999 -999 -999 -999
2007-06-08 06:00:11 51°16.641 2°53.794 -999 -999 -999 -999
2007-06-08 06:00:16 51°16.632 2°53.797 -999 -999 -999 -999
2007-06-08 06:00:21 51°16.623 2°53.799 -999 -999 -999 -999
2007-06-08 06:00:26 51°16.614 2°53.803 -999 -999 -999 -999
2007-06-08 06:00:31 51°16.606 2°53.807 -999 -999 -999 -999
2007-06-08 06:00:36 51°16.597 2°53.812 -999 -999 -999 -999
2007-06-08 06:00:41 51°16.588 2°53.817 -999 -999 -999 -999
2007-06-08 06:00:46 51°16.579 2°53.823 -999 -999 -999 -999
2007-06-08 06:00:51 51°16.57 2°53.829 -999 -999 -999 -999
2007-06-08 06:00:56 51°16.561 2°53.835 -999 -999 -999 -999
2007-06-08 06:01:00 51°16.554 2°53.841 -999 -999 -999 -999
2007-06-08 06:01:06 51°16.544 2°53.849 -999 -999 -999 -999
2007-06-08 06:01:11 51°16.535 2°53.856 -999 -999 -999 -999
2007-06-08 06:01:16 51°16.526 2°53.863 -999 -999 -999 -999
2007-06-08 06:01:21 51°16.518 2°53.871 -999 -999 -999 -999
2007-06-08 06:01:26 51°16.509 2°53.879 -999 -999 -999 -999
2007-06-08 06:01:31 51°16.5 2°53.887 -999 -999 -999 -999
2007-06-08 06:01:36 51°16.492 2°53.896 -999 -999 -999 -999
2007-06-08 06:01:41 51°16.483 2°53.903 -999 -999 -999 -999
2007-06-08 06:01:46 51°16.474 2°53.913 -999 -999 -999 -999
2007-06-08 06:01:51 51°16.466 2°53.921 -999 -999 -999 -999
2007-06-08 06:01:56 51°16.458 2°53.931 -999 -999 -999 -999
2007-06-08 06:02:01 51°16.45 2°53.941 -999 -999 -999 -999
2007-06-08 06:02:06 51°16.441 2°53.951 -999 -999 -999 -999
2007-06-08 06:02:11 51°16.431 2°53.961 -999 -999 -999 -999
2007-06-08 06:02:16 51°16.422 2°53.973 -999 -999 -999 -999
2007-06-08 06:02:21 51°16.411 2°53.985 -999 -999 -999 -999
2007-06-08 06:02:26 51°16.4 2°53.999 -999 -999 -999 -999
2007-06-08 06:02:31 51°16.388 2°54.012 -999 -999 -999 -999
2007-06-08 06:02:36 51°16.376 2°54.027 -999 -999 -999 -999
2007-06-08 06:02:41 51°16.363 2°54.039 -999 -999 -999 -999
2007-06-08 06:02:46 51°16.35 2°54.052 -999 -999 -999 -999
2007-06-08 06:02:51 51°16.337 2°54.065 -999 -999 -999 -999
2007-06-08 06:02:56 51°16.323 2°54.079 -999 -999 -999 -999
2007-06-08 06:03:00 51°16.312 2°54.089 -999 -999 -999 -999
2007-06-08 06:03:06 51°16.295 2°54.104 -999 -999 -999 -999
2007-06-08 06:03:11 51°16.281 2°54.117 -999 -999 -999 -999
2007-06-08 06:03:16 51°16.267 2°54.13 -999 -999 -999 -999
2007-06-08 06:03:20 51°16.255 2°54.14 -999 -999 -999 -999
2007-06-08 06:03:26 51°16.238 2°54.156 -999 -999 -999 -999
2007-06-08 06:03:30 51°16.227 2°54.166 -999 -999 -999 -999
2007-06-08 06:03:36 51°16.21 2°54.182 -999 -999 -999 -999
2007-06-08 06:03:40 51°16.198 2°54.192 -999 -999 -999 -999
2007-06-08 06:03:46 51°16.182 2°54.209 -999 -999 -999 -999
2007-06-08 06:03:50 51°16.171 2°54.217 -999 -999 -999 -999
2007-06-08 06:03:56 51°16.153 2°54.233 -999 -999 -999 -999
2007-06-08 06:04:01 51°16.139 2°54.246 -999 -999 -999 -999
2007-06-08 06:04:06 51°16.126 2°54.26 -999 -999 -999 -999
2007-06-08 06:04:10 51°16.114 2°54.269 -999 -999 -999 -999
2007-06-08 06:04:15 51°16.099 2°54.281 -999 -999 -999 -999
2007-06-08 06:04:21 51°16.081 2°54.296 -999 -999 -999 -999
2007-06-08 06:04:26 51°16.067 2°54.308 -999 -999 -999 -999
2007-06-08 06:04:31 51°16.052 2°54.318 -999 -999 -999 -999
2007-06-08 06:04:35 51°16.041 2°54.329 -999 -999 -999 -999
2007-06-08 06:04:41 51°16.023 2°54.341 -999 -999 -999 -999
2007-06-08 06:04:46 51°16.008 2°54.351 -999 -999 -999 -999
2007-06-08 06:04:51 51°15.993 2°54.362 -999 -999 -999 -999
2007-06-08 06:04:55 51°15.981 2°54.369 -999 -999 -999 -999
2007-06-08 06:05:00 51°15.965 2°54.378 -999 -999 -999 -999
2007-06-08 06:05:06 51°15.948 2°54.39 -999 -999 -999 -999
2007-06-08 06:05:11 51°15.933 2°54.399 -999 -999 -999 -999
2007-06-08 06:05:16 51°15.918 2°54.409 -999 -999 -999 -999
2007-06-08 06:05:20 51°15.906 2°54.415 -999 -999 -999 -999
2007-06-08 06:05:26 51°15.889 2°54.427 -999 -999 -999 -999
2007-06-08 06:05:31 51°15.873 2°54.433 -999 -999 -999 -999
2007-06-08 06:05:36 51°15.858 2°54.444 -999 -999 -999 -999
2007-06-08 06:05:40 51°15.846 2°54.449 -999 -999 -999 -999
2007-06-08 06:05:46 51°15.828 2°54.46 -999 -999 -999 -999
2007-06-08 06:05:51 51°15.813 2°54.467 -999 -999 -999 -999
2007-06-08 06:05:55 51°15.801 2°54.474 -999 -999 -999 -999
2007-06-08 06:06:01 51°15.782 2°54.481 -999 -999 -999 -999
2007-06-08 06:06:06 51°15.768 2°54.489 -999 -999 -999 -999
2007-06-08 06:06:10 51°15.755 2°54.495 -999 -999 -999 -999
2007-06-08 06:06:16 51°15.736 2°54.502 -999 -999 -999 -999
2007-06-08 06:06:21 51°15.721 2°54.51 -999 -999 -999 -999
2007-06-08 06:06:26 51°15.705 2°54.515 -999 -999 -999 -999
2007-06-08 06:06:30 51°15.692 2°54.521 -999 -999 -999 -999
2007-06-08 06:06:36 51°15.674 2°54.527 -999 -999 -999 -999
2007-06-08 06:06:40 51°15.661 2°54.533 -999 -999 -999 -999
2007-06-08 06:06:46 51°15.643 2°54.541 -999 -999 -999 -999
2007-06-08 06:06:51 51°15.627 2°54.546 -999 -999 -999 -999
2007-06-08 06:06:55 51°15.615 2°54.55 -999 -999 -999 -999
2007-06-08 06:07:01 51°15.595 2°54.557 -999 -999 -999 -999
2007-06-08 06:07:06 51°15.58 2°54.562 -999 -999 -999 -999
2007-06-08 06:07:11 51°15.566 2°54.567 -999 -999 -999 -999
2007-06-08 06:07:15 51°15.554 2°54.57 -999 -999 -999 -999
2007-06-08 06:07:20 51°15.54 2°54.576 -999 -999 -999 -999
2007-06-08 06:07:26 51°15.524 2°54.582 -999 -999 -999 -999
2007-06-08 06:07:31 51°15.511 2°54.586 -999 -999 -999 -999
2007-06-08 06:07:36 51°15.498 2°54.591 -999 -999 -999 -999
2007-06-08 06:07:40 51°15.488 2°54.594 -999 -999 -999 -999
2007-06-08 06:07:46 51°15.473 2°54.598 -999 -999 -999 -999
2007-06-08 06:07:51 51°15.461 2°54.602 -999 -999 -999 -999
2007-06-08 06:07:55 51°15.451 2°54.604 -999 -999 -999 -999
2007-06-08 06:08:00 51°15.439 2°54.608 -999 -999 -999 -999
2007-06-08 06:08:06 51°15.424 2°54.611 -999 -999 -999 -999
2007-06-08 06:08:10 51°15.415 2°54.614 -999 -999 -999 -999
2007-06-08 06:08:16 51°15.401 2°54.618 -999 -999 -999 -999
2007-06-08 06:08:21 51°15.391 2°54.62 -999 -999 -999 -999
2007-06-08 06:08:26 51°15.38 2°54.623 -999 -999 -999 -999
2007-06-08 06:08:30 51°15.372 2°54.626 -999 -999 -999 -999
2007-06-08 06:08:36 51°15.359 2°54.628 -999 -999 -999 -999
2007-06-08 06:08:40 51°15.351 2°54.63 -999 -999 -999 -999
2007-06-08 06:08:46 51°15.339 2°54.633 -999 -999 -999 -999
2007-06-08 06:08:51 51°15.33 2°54.634 -999 -999 -999 -999
2007-06-08 06:08:56 51°15.32 2°54.637 -999 -999 -999 -999
2007-06-08 06:09:01 51°15.311 2°54.637 -999 -999 -999 -999
2007-06-08 06:09:06 51°15.302 2°54.639 -999 -999 -999 -999
2007-06-08 06:09:11 51°15.292 2°54.638 -999 -999 -999 -999
2007-06-08 06:09:15 51°15.285 2°54.64 -999 -999 -999 -999
2007-06-08 06:09:21 51°15.275 2°54.638 -999 -999 -999 -999
2007-06-08 06:09:26 51°15.265 2°54.64 -999 -999 -999 -999
2007-06-08 06:09:30 51°15.259 2°54.638 -999 -999 -999 -999
2007-06-08 06:09:36 51°15.248 2°54.639 -999 -999 -999 -999
2007-06-08 06:09:41 51°15.24 2°54.637 -999 -999 -999 -999
2007-06-08 06:09:46 51°15.231 2°54.638 -999 -999 -999 -999
2007-06-08 06:09:51 51°15.223 2°54.638 -999 -999 -999 -999
2007-06-08 06:09:55 51°15.216 2°54.639 -999 -999 -999 -999
2007-06-08 06:10:00 51°15.207 2°54.64 -999 -999 -999 -999
2007-06-08 06:10:06 51°15.198 2°54.641 -999 -999 -999 -999
2007-06-08 06:10:11 51°15.189 2°54.642 -999 -999 -999 -999
2007-06-08 06:10:16 51°15.181 2°54.643 -999 -999 -999 -999
2007-06-08 06:10:21 51°15.172 2°54.645 -999 -999 -999 -999
2007-06-08 06:10:26 51°15.164 2°54.646 -999 -999 -999 -999
2007-06-08 06:10:30 51°15.157 2°54.648 -999 -999 -999 -999
2007-06-08 06:10:36 51°15.147 2°54.65 -999 -999 -999 -999
2007-06-08 06:10:40 51°15.141 2°54.652 -999 -999 -999 -999
2007-06-08 06:10:46 51°15.131 2°54.654 -999 -999 -999 -999
2007-06-08 06:10:50 51°15.124 2°54.656 -999 -999 -999 -999
2007-06-08 06:10:56 51°15.114 2°54.658 -999 -999 -999 -999
2007-06-08 06:11:01 51°15.106 2°54.66 -999 -999 -999 -999
2007-06-08 06:11:06 51°15.098 2°54.662 -999 -999 -999 -999
2007-06-08 06:11:11 51°15.09 2°54.665 -999 -999 -999 -999
2007-06-08 06:11:15 51°15.083 2°54.666 -999 -999 -999 -999
2007-06-08 06:11:21 51°15.073 2°54.67 -999 -999 -999 -999
2007-06-08 06:11:26 51°15.065 2°54.671 -999 -999 -999 -999
2007-06-08 06:11:30 51°15.058 2°54.675 -999 -999 -999 -999
2007-06-08 06:11:35 51°15.05 2°54.677 -999 -999 -999 -999
2007-06-08 06:11:41 51°15.04 2°54.681 -999 -999 -999 -999
2007-06-08 06:11:46 51°15.032 2°54.684 -999 -999 -999 -999
2007-06-08 06:11:51 51°15.024 2°54.688 -999 -999 -999 -999
2007-06-08 06:11:55 51°15.018 2°54.69 -999 -999 -999 -999
2007-06-08 06:12:00 51°15.009 2°54.695 -999 -999 -999 -999
2007-06-08 06:12:06 51°15 2°54.698 -999 -999 -999 -999
2007-06-08 06:12:11 51°14.991 2°54.702 -999 -999 -999 -999
2007-06-08 06:12:15 51°14.985 2°54.704 -999 -999 -999 -999
2007-06-08 06:12:20 51°14.977 2°54.708 -999 -999 -999 -999
2007-06-08 06:12:25 51°14.969 2°54.711 -999 -999 -999 -999
2007-06-08 06:12:31 51°14.959 2°54.715 -999 -999 -999 -999
2007-06-08 06:12:36 51°14.951 2°54.718 -999 -999 -999 -999
2007-06-08 06:12:40 51°14.945 2°54.721 -999 -999 -999 -999
2007-06-08 06:12:46 51°14.935 2°54.724 -999 -999 -999 -999
2007-06-08 06:12:51 51°14.927 2°54.727 -999 -999 -999 -999
2007-06-08 06:12:56 51°14.919 2°54.73 -999 -999 -999 -999
2007-06-08 06:13:00 51°14.912 2°54.731 -999 -999 -999 -999
2007-06-08 06:13:06 51°14.903 2°54.735 -999 -999 -999 -999
2007-06-08 06:13:11 51°14.895 2°54.737 -999 -999 -999 -999
2007-06-08 06:13:16 51°14.887 2°54.74 -999 -999 -999 -999
2007-06-08 06:13:21 51°14.879 2°54.742 -999 -999 -999 -999
2007-06-08 06:13:26 51°14.871 2°54.744 -999 -999 -999 -999
2007-06-08 06:13:30 51°14.864 2°54.746 -999 -999 -999 -999
2007-06-08 06:13:35 51°14.856 2°54.748 -999 -999 -999 -999
2007-06-08 06:13:41 51°14.847 2°54.75 -999 -999 -999 -999
2007-06-08 06:13:46 51°14.839 2°54.753 -999 -999 -999 -999
2007-06-08 06:13:50 51°14.832 2°54.754 -999 -999 -999 -999
2007-06-08 06:13:55 51°14.824 2°54.756 -999 -999 -999 -999
2007-06-08 06:14:00 51°14.816 2°54.758 -999 -999 -999 -999
2007-06-08 06:14:06 51°14.806 2°54.762 -999 -999 -999 -999
2007-06-08 06:14:11 51°14.798 2°54.763 -999 -999 -999 -999
2007-06-08 06:14:15 51°14.792 2°54.766 -999 -999 -999 -999
2007-06-08 06:14:20 51°14.784 2°54.767 -999 -999 -999 -999
2007-06-08 06:14:26 51°14.774 2°54.771 -999 -999 -999 -999
2007-06-08 06:14:31 51°14.767 2°54.775 -999 -999 -999 -999
2007-06-08 06:14:35 51°14.76 2°54.777 -999 -999 -999 -999
2007-06-08 06:14:40 51°14.752 2°54.78 -999 -999 -999 -999
2007-06-08 06:14:46 51°14.742 2°54.785 -999 -999 -999 -999
2007-06-08 06:14:51 51°14.734 2°54.788 -999 -999 -999 -999
2007-06-08 06:14:56 51°14.724 2°54.793 -999 -999 -999 -999
2007-06-08 06:15:00 51°14.715 2°54.796 -999 -999 -999 -999
2007-06-08 06:15:06 51°14.701 2°54.804 -999 -999 -999 -999
2007-06-08 06:15:11 51°14.688 2°54.809 -999 -999 -999 -999
2007-06-08 06:15:16 51°14.675 2°54.815 -999 -999 -999 -999
2007-06-08 06:15:20 51°14.664 2°54.82 -999 -999 -999 -999
2007-06-08 06:15:26 51°14.645 2°54.828 -999 -999 -999 -999
2007-06-08 06:15:30 51°14.633 2°54.834 -999 -999 -999 -999
2007-06-08 06:15:36 51°14.614 2°54.842 -999 -999 -999 -999
2007-06-08 06:15:41 51°14.598 2°54.851 -999 -999 -999 -999
2007-06-08 06:15:46 51°14.582 2°54.861 -999 -999 -999 -999
2007-06-08 06:15:50 51°14.568 2°54.868 -999 -999 -999 -999
2007-06-08 06:15:55 51°14.552 2°54.878 -999 -999 -999 -999
2007-06-08 06:16:01 51°14.533 2°54.891 -999 -999 -999 -999
2007-06-08 06:16:07 51°14.515 2°54.905 -999 -999 -999 -999
2007-06-08 06:16:11 51°14.501 2°54.914 -999 -999 -999 -999
2007-06-08 06:16:15 51°14.487 2°54.924 -999 -999 -999 -999
2007-06-08 06:16:20 51°14.472 2°54.938 -999 -999 -999 -999
2007-06-08 06:16:26 51°14.454 2°54.955 -999 -999 -999 -999
2007-06-08 06:16:31 51°14.439 2°54.97 -999 -999 -999 -999
2007-06-08 06:16:35 51°14.427 2°54.984 -999 -999 -999 -999
2007-06-08 06:16:40 51°14.413 2°55.002 -999 -999 -999 -999
2007-06-08 06:16:46 51°14.397 2°55.026 -999 -999 -999 -999
2007-06-08 06:16:51 51°14.384 2°55.044 -999 -999 -999 -999
2007-06-08 06:16:56 51°14.373 2°55.066 -999 -999 -999 -999
2007-06-08 06:17:00 51°14.362 2°55.083 -999 -999 -999 -999
2007-06-08 06:17:06 51°14.348 2°55.107 -999 -999 -999 -999
2007-06-08 06:17:11 51°14.335 2°55.127 -999 -999 -999 -999
2007-06-08 06:17:16 51°14.324 2°55.149 -999 -999 -999 -999
2007-06-08 06:17:20 51°14.315 2°55.168 -999 -999 -999 -999
2007-06-08 06:17:26 51°14.301 2°55.194 -999 -999 -999 -999
2007-06-08 06:17:30 51°14.292 2°55.211 -999 -999 -999 -999
2007-06-08 06:17:36 51°14.278 2°55.237 -999 -999 -999 -999
2007-06-08 06:17:41 51°14.267 2°55.259 -999 -999 -999 -999
2007-06-08 06:17:46 51°14.254 2°55.278 -999 -999 -999 -999
2007-06-08 06:17:51 51°14.242 2°55.297 -999 -999 -999 -999
2007-06-08 06:17:56 51°14.23 2°55.314 -999 -999 -999 -999
2007-06-08 06:18:01 51°14.218 2°55.33 -999 -999 -999 -999
2007-06-08 06:18:06 51°14.206 2°55.347 -999 -999 -999 -999
2007-06-08 06:18:11 51°14.194 2°55.36 -999 -999 -999 -999
2007-06-08 06:18:16 51°14.183 2°55.374 -999 -999 -999 -999
2007-06-08 06:18:21 51°14.171 2°55.387 -999 -999 -999 -999
2007-06-08 06:18:26 51°14.16 2°55.399 -999 -999 -999 -999
2007-06-08 06:18:30 51°14.151 2°55.407 -999 -999 -999 -999
2007-06-08 06:18:36 51°14.138 2°55.419 -999 -999 -999 -999
2007-06-08 06:18:40 51°14.129 2°55.426 -999 -999 -999 -999
2007-06-08 06:18:46 51°14.115 2°55.436 -999 -999 -999 -999
2007-06-08 06:18:51 51°14.104 2°55.444 -999 -999 -999 -999
2007-06-08 06:18:56 51°14.093 2°55.452 -999 -999 -999 -999
2007-06-08 06:19:00 51°14.084 2°55.458 -999 -999 -999 -999
2007-06-08 06:19:06 51°14.071 2°55.467 -999 -999 -999 -999
2007-06-08 06:19:11 51°14.061 2°55.474 -999 -999 -999 -999
2007-06-08 06:19:16 51°14.05 2°55.482 -999 -999 -999 -999
2007-06-08 06:19:20 51°14.042 2°55.487 -999 -999 -999 -999
2007-06-08 06:19:26 51°14.03 2°55.496 -999 -999 -999 -999
2007-06-08 06:19:30 51°14.022 2°55.501 -999 -999 -999 -999
2007-06-08 06:19:35 51°14.013 2°55.508 -999 -999 -999 -999
2007-06-08 06:19:41 51°14.002 2°55.516 -999 -999 -999 -999
2007-06-08 06:19:46 51°13.992 2°55.522 -999 -999 -999 -999
2007-06-08 06:19:50 51°13.985 2°55.527 -999 -999 -999 -999
2007-06-08 06:19:56 51°13.974 2°55.535 -999 -999 -999 -999
2007-06-08 06:20:01 51°13.965 2°55.541 -999 -999 -999 -999
2007-06-08 06:20:06 51°13.956 2°55.547 -999 -999 -999 -999
2007-06-08 06:20:10 51°13.948 2°55.552 -999 -999 -999 -999
2007-06-08 06:20:15 51°13.939 2°55.557 -999 -999 -999 -999
2007-06-08 06:20:22 51°13.927 2°55.566 -999 -999 -999 -999
2007-06-08 06:20:26 51°13.92 2°55.571 -999 -999 -999 -999
2007-06-08 06:20:30 51°13.913 2°55.576 -999 -999 -999 -999
2007-06-08 06:20:35 51°13.904 2°55.582 -999 -999 -999 -999
2007-06-08 06:20:41 51°13.893 2°55.588 -999 -999 -999 -999
2007-06-08 06:20:47 51°13.882 2°55.595 -999 -999 -999 -999
2007-06-08 06:20:51 51°13.875 2°55.6 -999 -999 -999 -999
2007-06-08 06:20:55 51°13.868 2°55.605 -999 -999 -999 -999
2007-06-08 06:21:00 51°13.859 2°55.611 -999 -999 -999 -999
2007-06-08 06:21:06 51°13.848 2°55.618 -999 -999 -999 -999
2007-06-08 06:21:11 51°13.84 2°55.624 -999 -999 -999 -999
2007-06-08 06:21:15 51°13.833 2°55.629 -999 -999 -999 -999
2007-06-08 06:21:20 51°13.824 2°55.635 -999 -999 -999 -999
2007-06-08 06:21:25 51°13.815 2°55.642 -999 -999 -999 -999
2007-06-08 06:21:31 51°13.805 2°55.65 -999 -999 -999 -999
2007-06-08 06:21:36 51°13.797 2°55.658 -999 -999 -999 -999
2007-06-08 06:21:40 51°13.791 2°55.664 -999 -999 -999 -999
2007-06-08 06:21:46 51°13.782 2°55.674 -999 -999 -999 -999
2007-06-08 06:21:51 51°13.775 2°55.683 -999 -999 -999 -999
2007-06-08 06:21:56 51°13.768 2°55.692 -999 -999 -999 -999
2007-06-08 06:22:00 51°13.763 2°55.699 -999 -999 -999 -999
2007-06-08 06:22:06 51°13.756 2°55.71 -999 -999 -999 -999
2007-06-08 06:22:12 51°13.749 2°55.722 -999 -999 -999 -999
2007-06-08 06:22:16 51°13.744 2°55.73 -999 -999 -999 -999
2007-06-08 06:22:21 51°13.738 2°55.739 -999 -999 -999 -999
2007-06-08 06:22:26 51°13.733 2°55.749 -999 -999 -999 -999
2007-06-08 06:22:30 51°13.728 2°55.757 -999 -999 -999 -999
2007-06-08 06:22:36 51°13.721 2°55.768 -999 -999 -999 -999
2007-06-08 06:22:41 51°13.716 2°55.778 -999 -999 -999 -999
2007-06-08 06:22:46 51°13.711 2°55.788 -999 -999 -999 -999
2007-06-08 06:22:50 51°13.707 2°55.796 -999 -999 -999 -999
2007-06-08 06:22:55 51°13.701 2°55.805 -999 -999 -999 -999
2007-06-08 06:23:01 51°13.696 2°55.817 -999 -999 -999 -999
2007-06-08 06:23:06 51°13.691 2°55.826 -999 -999 -999 -999
2007-06-08 06:23:11 51°13.686 2°55.836 -999 -999 -999 -999
2007-06-08 06:23:15 51°13.683 2°55.843 -999 -999 -999 -999
2007-06-08 06:23:22 51°13.677 2°55.856 -999 -999 -999 -999
2007-06-08 06:23:26 51°13.673 2°55.863 -999 -999 -999 -999
2007-06-08 06:23:31 51°13.669 2°55.872 -999 -999 -999 -999
2007-06-08 06:23:36 51°13.664 2°55.881 -999 -999 -999 -999
2007-06-08 06:23:40 51°13.661 2°55.888 -999 -999 -999 -999
2007-06-08 06:23:46 51°13.656 2°55.898 -999 -999 -999 -999
2007-06-08 06:23:51 51°13.651 2°55.907 -999 -999 -999 -999
2007-06-08 06:23:56 51°13.647 2°55.915 -999 -999 -999 -999
2007-06-08 06:24:00 51°13.645 2°55.922 -999 -999 -999 -999
2007-06-08 06:24:06 51°13.64 2°55.931 -999 -999 -999 -999
2007-06-08 06:24:10 51°13.638 2°55.938 -999 -999 -999 -999
2007-06-08 06:24:16 51°13.634 2°55.947 -999 -999 -999 -999
2007-06-08 06:24:21 51°13.631 2°55.955 -999 -999 -999 -999
2007-06-08 06:24:26 51°13.628 2°55.962 -999 -999 -999 -999
2007-06-08 06:24:30 51°13.625 2°55.968 -999 -999 -999 -999
2007-06-08 06:24:37 51°13.622 2°55.979 -999 -999 -999 -999
2007-06-08 06:24:41 51°13.619 2°55.985 -999 -999 -999 -999
2007-06-08 06:24:46 51°13.617 2°55.992 -999 -999 -999 -999
2007-06-08 06:24:51 51°13.614 2°56 -999 -999 -999 -999
2007-06-08 06:24:55 51°13.612 2°56.005 -999 -999 -999 -999
2007-06-08 06:25:01 51°13.609 2°56.014 -999 -999 -999 -999
2007-06-08 06:25:06 51°13.607 2°56.021 -999 -999 -999 -999
2007-06-08 06:25:11 51°13.605 2°56.029 -999 -999 -999 -999
2007-06-08 06:25:15 51°13.603 2°56.035 -999 -999 -999 -999
2007-06-08 06:25:21 51°13.601 2°56.043 -999 -999 -999 -999
2007-06-08 06:25:26 51°13.599 2°56.051 -999 -999 -999 -999
2007-06-08 06:25:31 51°13.597 2°56.058 -999 -999 -999 -999
2007-06-08 06:25:36 51°13.596 2°56.064 -999 -999 -999 -999
2007-06-08 06:25:41 51°13.594 2°56.071 -999 -999 -999 -999
2007-06-08 06:25:46 51°13.593 2°56.077 -999 -999 -999 -999
2007-06-08 06:25:51 51°13.592 2°56.083 -999 -999 -999 -999
2007-06-08 06:25:55 51°13.591 2°56.088 -999 -999 -999 -999
2007-06-08 06:26:00 51°13.59 2°56.093 -999 -999 -999 -999
2007-06-08 06:26:06 51°13.589 2°56.1 -999 -999 -999 -999
2007-06-08 06:26:11 51°13.588 2°56.104 -999 -999 -999 -999
2007-06-08 06:26:16 51°13.587 2°56.108 -999 -999 -999 -999
2007-06-08 06:26:20 51°13.586 2°56.111 -999 -999 -999 -999
2007-06-08 06:26:26 51°13.585 2°56.115 -999 -999 -999 -999
2007-06-08 06:26:31 51°13.585 2°56.117 -999 -999 -999 -999
2007-06-08 06:26:37 51°13.584 2°56.119 -999 -999 -999 -999
2007-06-08 06:26:41 51°13.584 2°56.12 -999 -999 -999 -999
2007-06-08 06:26:47 51°13.584 2°56.121 -999 -999 -999 -999
2007-06-08 06:26:52 51°13.584 2°56.122 -999 -999 -999 -999
2007-06-08 06:26:57 51°13.584 2°56.123 -999 -999 -999 -999
2007-06-08 06:27:02 51°13.583 2°56.124 -999 -999 -999 -999
2007-06-08 06:27:07 51°13.583 2°56.125 -999 -999 -999 -999
2007-06-08 06:27:11 51°13.583 2°56.125 -999 -999 -999 -999
2007-06-08 06:27:16 51°13.582 2°56.126 -999 -999 -999 -999
2007-06-08 06:27:22 51°13.581 2°56.127 -999 -999 -999 -999
2007-06-08 06:27:27 51°13.581 2°56.129 -999 -999 -999 -999
2007-06-08 06:27:32 51°13.58 2°56.129 -999 -999 -999 -999
2007-06-08 06:27:36 51°13.58 2°56.13 -999 -999 -999 -999
2007-06-08 06:27:41 51°13.58 2°56.13 -999 -999 -999 -999
2007-06-08 06:27:47 51°13.58 2°56.13 -999 -999 -999 -999
2007-06-08 06:27:52 51°13.58 2°56.131 -999 -999 -999 -999
2007-06-08 06:27:57 51°13.58 2°56.131 -999 -999 -999 -999
2007-06-08 06:28:02 51°13.579 2°56.132 -999 -999 -999 -999
2007-06-08 06:28:07 51°13.579 2°56.132 -999 -999 -999 -999
2007-06-08 06:28:12 51°13.579 2°56.132 -999 -999 -999 -999
2007-06-08 06:28:17 51°13.579 2°56.133 -999 -999 -999 -999
2007-06-08 06:28:22 51°13.58 2°56.133 -999 -999 -999 -999
2007-06-08 06:28:27 51°13.58 2°56.133 -999 -999 -999 -999
2007-06-08 06:28:32 51°13.58 2°56.133 -999 -999 -999 -999
2007-06-08 06:28:37 51°13.58 2°56.133 -999 -999 -999 -999
2007-06-08 06:28:42 51°13.58 2°56.133 -999 -999 -999 -999
2007-06-08 06:28:47 51°13.58 2°56.133 -999 -999 -999 -999
2007-06-08 06:28:52 51°13.58 2°56.133 -999 -999 -999 -999
2007-06-08 06:29:02 51°13.58 2°56.133 -999 -999 -999 -999
2007-06-08 06:29:07 51°13.58 2°56.133 -999 -999 -999 -999
2007-06-08 06:29:37 51°13.58 2°56.133 -999 -999 -999 -999
2007-06-08 06:29:42 51°13.58 2°56.133 -999 -999 -999 -999
2007-06-08 06:29:52 51°13.581 2°56.133 -999 -999 -999 -999
2007-06-08 06:29:57 51°13.581 2°56.133 -999 -999 -999 -999
2007-06-08 06:30:02 51°13.581 2°56.133 -999 -999 -999 -999
2007-06-08 06:30:22 51°13.581 2°56.133 -999 -999 -999 -999
2007-06-08 06:30:27 51°13.581 2°56.133 -999 -999 -999 -999
2007-06-08 06:30:52 51°13.581 2°56.133 -999 -999 -999 -999
2007-06-08 10:35:39 51°13.581 2°56.133 -999 -999 -999 -999
2007-06-08 10:45:19 51°13.581 2°56.133 -999 -999 -999 -999
2007-06-08 10:49:44 51°13.579 2°56.134 -999 -999 -999 -999
2007-06-08 10:49:49 51°13.579 2°56.134 -999 -999 -999 -999